Regional Weather Roundup
Issued by NWS

Home | Current Version | Previous Version | Graphics & Text | Print | Product List | Glossary On
Versions: 1 2 3 4 5 6 7 8 9 10 11 12 13 14 15 16 17 18 19 20 21 22 23 24 25 26 27 28 29 30 31 32 33 34 35 36 37 38 39 40 41 42 43 44 45 46 47 48 49 50
000
ASUS43 KLOT 030000
RWRIL

ILLINOIS REGIONAL WEATHER ROUNDUP
NATIONAL WEATHER SERVICE CHICAGO/ROMEOVILLE IL
700 PM CDT TUE SEP 02 2014

NOTE: "FAIR" INDICATES FEW OR NO CLOUDS BELOW 12,000 FEET WITH NO
SIGNIFICANT WEATHER AND/OR OBSTRUCTIONS TO VISIBILITY.

* THESE STATIONS ARE NOT UNDER NWS QUALITY CONTROL. THEY ALSO MAY NOT
  REPORT WEATHER SUCH AS PRECIPITATION OR FOG.

ILZ001-002-007-009-015-016-024-030100-
NORTHWEST ILLINOIS

CITY           SKY/WX    TMP DP  RH WIND       PRES   REMARKS
MOLINE         CLEAR     77  59  53 W7        29.90S
6HR MIN TEMP:  77; 6HR MAX TEMP:  82;

STERLING*      MOCLDY    75  63  64 NW7       29.91R
$$

ILZ003-004-008-010-011-017-018-030100-
NORTH CENTRAL ILLINOIS

CITY           SKY/WX    TMP DP  RH WIND       PRES   REMARKS
ROCKFORD       PTCLDY    75  59  57 NW6       29.91S
6HR MIN TEMP:  75; 6HR MAX TEMP:  81;

$$

ILZ005-006-012>014-019>023-030100-
NORTHEAST ILLINOIS

CITY           SKY/WX    TMP DP  RH WIND       PRES   REMARKS
CHICAGO-OHARE  PTCLDY    76  56  49 W7        29.89S
6HR MIN TEMP:  76; 6HR MAX TEMP:  82;

CHICAGO-MIDWAY PTCLDY    80  56  43 W9        29.89S HX  80
6HR MIN TEMP:  80; 6HR MAX TEMP:  85;

AURORA         PTCLDY    74  62  66 W3        29.90F
6HR MIN TEMP:  74; 6HR MAX TEMP:  81;

WAUKEGAN       PTCLDY    74  59  59 CALM      29.88S
6HR MIN TEMP:  74; 6HR MAX TEMP:  80;

DUPAGE AIRPORT MOCLDY    76  59  55 W6        29.90S
6HR MIN TEMP:  76; 6HR MAX TEMP:  82;

WHEELING       MOCLDY    79  57  46 W7        29.90S HX  80
6HR MIN TEMP:  79; 6HR MAX TEMP:  83;

NORTHERLY ISL    N/A     73  66  78 S5          N/A
$$

LMZ740>746-030100-
SOUTHERN LAKE MICHIGAN

STATION/POSITION SKY/WX   TEMP    WIND        PRES    VSBY  WAVE
                          AIR SEA DIR/SP/G                  HT/PER
                          (F)     (DEG/KT/KT) (MB)    (MI)  (FT/S)
SOUTHERN BUOY              73 73  180/  4/  4 1012.3F         0
WAUKEGAN HARBOR            77     240/  8/ 13   N/A
HARRISON CRIB              74     100/  7/  8   N/A
BURNHAM HARBOR             73     170/  4/  8   N/A
CALUMET HARBOR             75     100/  5/  7 1011.1F
MICHIGAN CITY              73      30/  6/  7   N/A
MICHIGAN CITY 6N           73 73   80/  4/  6   N/A           0
ST. JOSEPH                 74 73   50/  2/  4   N/A           1
$$

ILZ025>027-034>036-040-047-049-050-058-095>099-030100-
WEST-CENTRAL ILLINOIS

CITY           SKY/WX    TMP DP  RH WIND       PRES   REMARKS
QUINCY         CLEAR     79  64  60 CALM      29.93S HX  81
MACOMB*        CLEAR     76  64  67 W3        29.94S
$$

ILZ028>032-037-038-041>044-048-051>054-059>061-030100-
CENTRAL ILLINOIS

CITY           SKY/WX    TMP DP  RH WIND       PRES   REMARKS
DECATUR        MOCLDY    79  67  66 CALM      29.93S HX  81
PEORIA         PTCLDY    80  63  55 CALM      29.92S HX  81
6HR MIN TEMP:  80; 6HR MAX TEMP:  84;

SPRINGFIELD    PTCLDY    81  67  62 NW3       29.92S HX  83
6HR MIN TEMP:  78; 6HR MAX TEMP:  84;

TAYLORVILLE    NOT AVBL
$$

ILZ033-039-045-046-055>057-062-063-030100-
EAST-CENTRAL ILLINOIS

CITY           SKY/WX    TMP DP  RH WIND       PRES   REMARKS
CHAMPAIGN      MOCLDY    75  69  81 SW3       29.93R
MATTOON        PTCLDY    74  68  81 CALM      29.93R
$$

ILZ079-100>102-030100-
SOUTHWEST ILLINOIS

CITY           SKY/WX    TMP DP  RH WIND       PRES   REMARKS
BELLEVILLE     CLEAR     80  69  69 N2        29.93S HX  83
CAHOKIA*       PTCLDY    78  67  68 N5        29.94R HX  80
$$

ILZ064>066-069>071-074>076-080>082-084>086-088>090-092>094-030100-
SOUTH-CENTRAL ILLINOIS

CITY           SKY/WX    TMP DP  RH WIND       PRES   REMARKS
CARBONDALE     PTCLDY    79  70  74 CALM      29.95R HX  82
6HR MIN TEMP:  79; 6HR MAX TEMP:  83;

MT. VERNON     CLEAR     77  68  73 CALM      29.95R
$$

ILZ067-068-072-073-078-083-087-091-030100-
SOUTHEAST ILLINOIS

CITY           SKY/WX    TMP DP  RH WIND       PRES   REMARKS
LAWRENCEVILLE  CLEAR     78  71  79 CALM      29.94R HX  80
ROBINSON*      CLEAR     77  71  82 CALM      29.94S
$$

ABBREVIATIONS USED IN REMARKS
   TC - TEMPERATURE IN CELSIUS
  WCI - WIND CHILL INDEX
   HX - HEAT INDEX
  VSB - VISIBILITY
$$



USA.gov is the U.S. government's official web portal to all federal, state and local government web resources and services.